Location: Colle Pacifico
(43.5333°N, 13.3167°E)
Time: 17:31:30
(UTC+00:00)

Cosmos 1455 - Pass Details

Date: 07 June 2020
Orbit: 499 x 523 km, 82.5° (Epoch: 04 July)

Event Time Altitude Azimuth Distance (km) Brightness Sun altitude
Rises 00:55:44 0° 330° (NNW) 2,600 6.2 -19.0°
Reaches altitude 10° 00:58:53 10° 301° (WNW) 1,711 4.9 -18.8°
Enters shadow 01:00:07 12° 282° (WNW) 1,562 4.5 -18.7°
